KNSI

Details ICAO KNSI
Name SAN NICOLAS ISLAND NOLF
Region United States
Timezone America/Los_Angeles (UTC-7.0)
Plans Departing 38
Arriving 30
Stats Elevation 506 ft / 154 m (AMSL)
Location 33.239781° -119.458197°
Runways 1
Magnetic Variation 12.026° E
Sunrise 2018-05-24 12:54:01 UTC / 2018-05-24 05:54:01 Local
Sunset 2018-05-25 02:58:15 UTC / 2018-05-24 19:58:15 Local
Advertisement - Login to hide

Runways

ID Width Length Bearing (true) Bearing (mag) Surface Threshold Offset Overrun Length
12 200 ft / 61 m 10,005 ft / 3,050 m 132.73° 120.70° Asphalt 990 ft / 302 m 65 ft / 20 m
30 200 ft / 61 m 10,005 ft / 3,050 m 312.74° 300.71° Asphalt 0 ft / 0 m 0 ft / 0 m

Approach Navaids

Runway Type Ident Frequency Range Bearing (true) Bearing (mag) Slope Elevation
30 Localiser INSI 109.70 MHz 18 nm / 33 km 312.73° 300.70° - 483 ft / 147 m (AMSL)
30 Glidescope INSI 109.70 MHz 10 nm / 19 km 312.73° 300.71° 3.00° 497 ft / 151 m (AMSL)

Map

Weather


0- 5 10 15 20 25 30 35+ Temperature / ° C

Clouds and Precipitation
Forecast for 2018-05-24 12:00 UTC. Updated 3 hours ago

Ground ~20,000 ft ~40,000 ft Winds

METAR

KNSI 241357Z 23008KT 10SM FEW008 FEW015 OVC019 13/08 A3006 RMK AO2 SLP174 T01330078 $

TAF

Not found

Frequencies

Tower 126.85 MHz TWR
Warning: Do not use this data for real-world aviation or navigation. No guarantee of current accuracy is given.